Temp
61 59 59 57 57 57 56 56 55 55 55 55 53 53 53 56 57 59 61 62 62 64 64 68 69 68 67 67 67 67 64 63 64 62 60 61 62 62 63 64 64 63 62
57 57 55 54 53 53 54 54 54 52 52 53 52 51 51 52 56 56 56 58 57 58 61 61 64 68 68 68 65 67 63 65 64 62 58 57 59 60 62 62 63 63 63
55 54 52 50 51 50 51 51 51 50 49 50 50 50 51 51 51 51 53 54 55 56 57 59 61 63 66 67 66 66 66 63 62 63 60 54 55 56 58 61 62 62 62
53 52 50 48 48 47 48 49 49 48 49 48 46 44 43 43 46 48 50 51 53 53 55 56 57 58 61 64 66 66 65 65 62 63 63 60 58 55 53 58 62 62 61
49 48 48 47 47 47 45 46 47 46 45 44 44 42 41 43 44 46 46 47 49 51 53 53 55 56 58 61 64 63 64 64 63 62 63 59 58 57 54 52 57 61 61
50 49 50 48 45 45 44 43 43 42 43 42 41 40 39 40 41 41 42 44 46 48 49 51 51 54 56 59 62 65 64 63 63 64 64 64 59 57 55 53 53 57 61
47 46 45 45 44 42 39 42 40 39 40 39 38 38 38 39 40 42 43 44 44 45 46 47 48 49 52 56 58 62 64 63 63 64 64 65 66 62 59 56 54 54 56
45 43 43 42 43 41 39 38 37 37 37 37 36 37 37 37 39 42 43 43 44 44 46 46 47 48 49 51 54 57 63 64 63 65 65 64 65 64 61 62 56 52 54
42 42 42 41 40 39 38 37 35 35 36 35 36 36 37 38 39 40 42 42 44 46 47 48 48 49 49 50 52 54 58 64 64 64 65 65 65 64 64 64 59 59 50
41 40 39 39 38 38 36 35 35 35 35 36 36 37 37 39 40 40 39 41 42 44 44 45 46 47 49 50 51 52 57 62 63 65 63 63 64 63 63 64 63 61 59
39 39 38 38 37 36 35 34 34 35 35 35 36 37 37 38 39 38 39 40 41 42 42 43 44 46 47 50 51 52 54 59 62 65 65 64 63 62 62 62 62 61 59
36 36 36 35 34 34 33 33 34 34 35 36 37 36 37 37 36 36 37 38 38 40 40 42 43 46 47 50 51 52 54 57 61 62 63 64 64 63 62 61 61 61 60
34 33 32 32 33 34 32 33 34 34 35 35 35 35 35 35 34 34 35 36 36 38 39 39 41 43 45 46 54 53 53 57 62 63 62 63 63 62 62 62 60 58 59
34 33 32 32 33 32 32 32 33 34 34 33 33 33 33 34 34 34 34 34 35 35 36 37 38 39 41 42 47 54 54 58 63 62 63 64 63 63 61 60 59 58 58
32 32 31 31 31 31 32 32 32 32 32 32 31 31 33 33 34 33 32 32 33 34 34 35 35 37 37 39 39 48 57 59 60 58 59 61 61 55 57 59 59 59 58
30 31 30 30 29 30 30 30 30 30 31 30 30 30 31 32 31 32 31 31 30 31 32 32 33 33 36 35 38 44 44 45 44 43 43 43 44 46 44 42 41 52 58
28 28 27 27 28 28 29 29 29 30 29 28 29 29 28 28 30 30 30 29 28 29 28 30 32 32 32 34 35 36 36 37 37 39 41 39 39 39 40 38 38 36 36
26 26 26 26 27 28 29 31 31 28 27 26 26 28 27 26 28 28 27 28 28 27 27 28 30 31 32 33 34 35 33 33 32 32 32 35 36 35 35 36 34 33 32
24 24 24 23 26 29 30 30 30 30 28 25 25 26 26 24 25 25 25 26 26 26 26 27 28 29 31 34 33 33 32 31 30 31 32 33 32 34 34 31 30 29 27
22 23 26 29 30 30 31 29 29 29 26 26 25 26 25 23 22 23 24 25 25 25 26 26 27 30 30 33 33 31 31 29 30 31 31 33 32 32 32 30 28 25 25
27 30 29 28 28 30 30 27 28 26 27 27 27 25 25 24 23 23 23 23 24 25 25 26 27 27 30 30 32 32 29 28 28 28 28 31 32 33 32 31 28 27 28
29 30 29 28 29 29 28 26 26 28 28 26 25 25 25 25 24 23 23 23 22 23 24 25 25 26 28 31 32 31 30 30 27 26 27 29 31 32 32 30 31 30 29
28 30 28 28 28 30 29 25 26 27 28 28 26 23 25 25 24 23 23 23 23 22 22 23 24 24 26 27 30 30 30 28 26 26 28 29 29 28 27 29 29 28 28
27 28 27 26 26 28 29 28 29 29 27 27 27 28 26 24 25 25 24 23 23 23 21 21 23 24 25 25 26 26 25 26 25 25 25 25 26 26 25 25 26 26 26
27 28 26 25 24 25 25 26 29 30 29 28 28 27 27 26 23 24 24 23 25 26 24 21 22 22 23 25 28 27 24 24 24 23 22 21 21 21 21 22 23 24 25
27 26 25 24 23 24 23 24 27 28 27 27 26 25 25 24 25 23 23 28 28 29 30 30 26 24 28 29 29 29 28 27 26 21 18 18 19 18 19 19 20 21 22
MSLP
1008.12 1008.63 1009.26 1009.71 1010.18 1010.46 1010.36 1010.64 1010.98 1011.43 1011.28 1011.34 1011.05 1010.79 1011.00 1010.76 1010.19 1009.63 1009.66 1009.91 1009.90 1009.68 1009.20 1008.52 1008.59 1008.59 1009.00 1009.21 1009.08 1009.21 1009.54 1009.99 1009.91 1010.51 1011.02 1011.05 1011.34 1011.58 1011.78 1012.05 1012.38 1012.64 1012.96
1009.37 1009.96 1010.38 1010.17 1010.76 1011.21 1011.50 1011.63 1011.89 1012.00 1011.98 1011.97 1012.30 1012.50 1012.05 1010.92 1010.62 1010.42 1010.01 1009.61 1009.83 1009.87 1009.58 1009.30 1009.04 1008.42 1008.24 1008.34 1008.89 1008.68 1009.10 1009.36 1009.82 1010.62 1011.12 1011.60 1011.37 1011.24 1011.35 1011.74 1011.93 1012.05 1012.34
1010.68 1010.94 1011.09 1011.62 1011.94 1011.95 1012.07 1012.34 1012.62 1012.66 1012.79 1012.97 1012.93 1012.42 1012.12 1011.74 1011.07 1010.68 1010.05 1009.91 1009.79 1009.59 1009.62 1009.38 1009.16 1008.62 1008.07 1007.00 1007.43 1008.15 1008.27 1008.44 1009.28 1010.50 1010.27 1011.04 1010.54 1010.65 1010.93 1010.99 1011.38 1011.53 1011.83
1011.02 1012.40 1012.61 1012.23 1012.68 1013.61 1013.09 1013.19 1013.48 1013.76 1013.72 1013.65 1013.50 1013.44 1013.52 1013.38 1012.79 1012.24 1011.48 1010.66 1009.92 1009.44 1009.36 1009.30 1009.09 1008.66 1008.23 1007.75 1006.98 1007.08 1007.21 1008.16 1008.38 1009.74 1009.88 1009.95 1009.29 1009.93 1010.89 1010.87 1010.86 1011.00 1011.11
1012.32 1012.71 1013.61 1014.10 1014.07 1014.07 1014.35 1014.22 1014.56 1014.54 1014.78 1014.37 1014.08 1013.82 1013.69 1013.71 1013.16 1012.56 1011.81 1011.24 1010.55 1010.31 1009.89 1009.59 1009.23 1008.93 1008.27 1007.50 1006.86 1006.38 1006.56 1006.92 1007.38 1007.88 1009.45 1009.32 1009.86 1008.92 1009.51 1010.33 1010.36 1010.73 1010.43
1013.85 1014.41 1014.79 1015.14 1015.08 1015.30 1015.25 1015.02 1015.13 1015.06 1015.30 1014.99 1014.66 1014.31 1014.11 1013.67 1013.13 1012.56 1012.00 1011.29 1010.63 1009.77 1009.38 1009.08 1008.76 1008.25 1007.66 1007.08 1006.39 1005.79 1005.44 1005.71 1006.36 1007.12 1007.77 1007.82 1008.55 1008.56 1008.79 1009.63 1009.81 1009.82 1009.89
1014.78 1015.34 1016.25 1016.25 1016.70 1016.73 1016.36 1015.94 1015.63 1015.50 1015.39 1015.11 1014.97 1014.83 1014.55 1014.05 1013.45 1012.67 1011.84 1011.17 1010.53 1009.92 1009.15 1008.79 1008.39 1008.15 1007.71 1007.05 1006.46 1005.65 1004.67 1004.66 1004.99 1005.32 1005.69 1006.14 1005.95 1006.79 1007.73 1008.53 1009.20 1009.36 1009.72
1016.52 1016.36 1017.54 1017.86 1018.32 1017.99 1016.76 1016.52 1015.74 1015.96 1015.26 1015.34 1015.15 1014.99 1014.75 1014.19 1013.50 1012.80 1012.07 1011.22 1010.41 1009.75 1009.16 1008.61 1008.05 1007.56 1007.34 1006.96 1006.41 1005.55 1004.44 1003.73 1003.70 1003.90 1004.25 1004.80 1005.27 1005.82 1006.55 1007.14 1008.14 1009.06 1009.29
1017.05 1016.99 1018.23 1018.79 1018.90 1017.88 1017.01 1016.99 1016.70 1015.75 1015.84 1015.91 1015.61 1015.07 1014.55 1013.91 1013.26 1012.60 1011.94 1011.11 1010.38 1009.45 1008.63 1008.02 1007.35 1006.94 1006.63 1006.33 1005.72 1004.88 1003.98 1003.08 1002.69 1002.72 1003.21 1003.84 1004.15 1004.73 1005.40 1006.12 1006.79 1007.26 1008.57
1018.22 1017.67 1017.86 1018.86 1019.18 1019.13 1018.47 1017.91 1017.11 1016.51 1016.77 1016.29 1015.70 1015.04 1014.38 1013.66 1013.00 1012.29 1011.50 1010.71 1009.90 1009.11 1008.30 1007.50 1006.76 1005.93 1005.33 1005.13 1004.93 1004.13 1003.32 1002.59 1001.71 1001.68 1002.25 1002.70 1003.23 1003.78 1004.31 1004.71 1005.72 1006.25 1006.73
1018.94 1019.12 1019.38 1019.72 1020.32 1020.13 1018.70 1017.46 1017.29 1017.37 1016.98 1016.38 1015.69 1014.99 1014.11 1013.37 1012.78 1012.11 1011.37 1010.57 1009.62 1008.78 1007.81 1007.00 1006.17 1005.27 1004.39 1003.84 1003.43 1002.92 1002.59 1001.99 1000.93 1000.65 1001.07 1001.57 1002.24 1002.96 1003.39 1003.90 1004.32 1005.45 1005.58
1019.25 1019.47 1019.86 1020.38 1020.18 1019.58 1018.62 1018.44 1018.38 1017.96 1017.21 1016.49 1015.73 1014.91 1014.08 1013.36 1012.69 1012.01 1011.33 1010.58 1009.61 1008.65 1007.71 1006.64 1005.50 1004.28 1003.23 1002.42 1001.88 1001.32 1001.12 1000.73 1000.04 999.96 1000.01 1000.57 1001.37 1002.02 1002.53 1003.10 1003.32 1004.01 1004.47
1020.04 1020.37 1020.53 1020.15 1020.43 1020.43 1019.86 1019.29 1018.83 1017.80 1017.01 1016.50 1015.78 1014.99 1014.29 1013.65 1013.05 1012.38 1011.58 1010.68 1009.79 1008.79 1007.86 1006.82 1005.28 1004.01 1002.80 1001.75 999.92 999.52 999.69 999.39 998.96 998.88 999.22 999.57 1000.21 1000.97 1001.49 1002.06 1002.63 1003.29 1003.79
1020.11 1020.66 1020.96 1021.28 1020.97 1020.39 1019.88 1019.60 1018.66 1017.89 1017.34 1016.68 1016.03 1015.49 1014.86 1014.17 1013.57 1012.84 1011.92 1011.00 1010.12 1009.12 1008.14 1006.94 1005.64 1004.39 1002.86 1001.57 999.99 998.70 998.54 998.32 997.93 997.83 998.39 998.46 998.82 999.70 1000.81 1001.44 1002.02 1002.83 1003.44
1020.70 1021.01 1021.25 1021.15 1020.91 1020.85 1020.37 1019.41 1018.77 1018.32 1017.85 1017.48 1017.09 1016.58 1015.75 1014.99 1014.13 1013.27 1012.38 1011.65 1010.75 1009.72 1008.50 1007.28 1006.11 1004.58 1002.95 1001.55 999.69 998.17 997.48 997.42 997.50 997.67 997.78 997.45 997.63 998.60 999.59 1000.61 1001.41 1002.15 1002.84
1021.27 1021.65 1021.80 1021.73 1021.46 1021.08 1020.30 1019.59 1019.11 1018.90 1018.93 1018.58 1017.94 1017.30 1016.43 1015.51 1014.60 1013.69 1013.06 1012.47 1011.45 1010.15 1009.17 1008.11 1006.89 1005.32 1003.42 1001.68 999.55 997.87 997.96 998.21 998.90 999.36 999.93 1000.12 1000.10 999.50 1000.19 1001.06 1001.50 1001.31 1002.00
1022.21 1022.30 1022.15 1021.83 1021.65 1021.39 1020.79 1020.33 1020.40 1020.46 1019.84 1019.08 1018.69 1018.08 1017.16 1016.43 1015.63 1015.07 1014.34 1013.63 1012.75 1011.60 1010.48 1009.07 1007.45 1006.10 1004.39 1003.70 1002.22 998.76 1000.01 1000.50 1000.48 1001.01 1001.24 1001.69 1002.06 1001.85 1001.99 1001.78 1002.32 1002.82 1002.95
1022.99 1022.97 1022.84 1022.61 1022.35 1021.98 1021.47 1021.51 1021.29 1020.85 1020.36 1020.19 1019.61 1018.88 1018.42 1018.00 1017.22 1016.38 1015.74 1014.78 1013.77 1012.66 1011.44 1010.01 1008.81 1007.46 1006.37 1005.13 1003.79 1001.17 1001.42 1002.71 1001.94 1003.51 1002.67 1002.94 1003.34 1003.32 1003.35 1003.58 1003.44 1004.27 1004.71
1023.47 1023.39 1023.29 1022.98 1022.54 1022.29 1022.16 1021.92 1021.61 1021.36 1021.19 1021.06 1020.46 1020.07 1019.62 1019.32 1018.52 1017.72 1016.92 1016.00 1014.94 1013.80 1012.82 1011.83 1010.26 1008.90 1007.61 1006.37 1004.80 1003.82 1003.79 1004.58 1004.12 1005.89 1005.31 1004.98 1004.25 1004.88 1005.42 1005.85 1005.35 1005.93 1006.71
1023.65 1023.58 1023.42 1023.09 1022.74 1022.71 1022.56 1022.39 1022.10 1021.87 1022.00 1021.69 1021.48 1021.01 1020.78 1020.46 1019.78 1019.08 1018.22 1017.52 1016.53 1015.55 1014.42 1013.16 1011.99 1010.75 1009.14 1007.59 1006.59 1005.42 1005.46 1006.86 1007.15 1007.37 1006.59 1006.91 1007.45 1005.86 1006.43 1007.69 1006.90 1008.38 1008.56
1023.77 1023.84 1023.69 1023.50 1023.44 1023.28 1023.08 1022.90 1022.57 1022.41 1022.52 1022.48 1022.03 1021.62 1021.45 1021.00 1020.58 1019.96 1019.15 1018.42 1017.37 1016.55 1015.55 1014.67 1013.58 1012.59 1011.95 1011.31 1010.25 1009.46 1009.00 1008.74 1007.94 1009.17 1008.92 1008.82 1009.58 1009.00 1008.19 1009.64 1008.27 1009.03 1010.25
1023.84 1023.96 1023.93 1024.05 1024.04 1023.88 1023.71 1023.47 1023.19 1023.02 1022.82 1022.64 1022.71 1022.34 1022.16 1021.65 1021.09 1020.52 1019.86 1019.07 1018.29 1017.41 1016.57 1015.87 1015.06 1014.37 1014.14 1013.58 1012.72 1012.08 1011.67 1011.37 1011.07 1011.22 1011.48 1011.32 1010.36 1010.73 1010.47 1010.27 1010.43 1010.08 1010.56
1024.16 1024.27 1024.46 1024.60 1024.66 1024.47 1024.09 1023.81 1023.73 1023.59 1023.40 1023.11 1023.00 1023.02 1022.71 1022.17 1021.72 1021.14 1020.50 1019.80 1019.21 1018.56 1018.07 1017.35 1016.75 1016.39 1015.95 1015.25 1014.73 1014.25 1013.96 1013.73 1013.35 1013.55 1013.59 1013.27 1012.95 1012.38 1011.83 1011.90 1011.76 1011.87 1011.69
1024.60 1024.87 1025.09 1025.32 1025.25 1025.00 1024.47 1024.39 1024.45 1024.25 1023.91 1023.65 1023.43 1023.13 1022.95 1022.82 1022.40 1021.94 1021.47 1020.90 1020.27 1019.87 1019.59 1019.02 1018.48 1018.06 1017.54 1016.97 1016.48 1015.98 1015.67 1015.44 1015.12 1014.93 1014.76 1014.49 1014.09 1013.93 1014.39 1014.26 1014.27 1014.37 1013.98
1025.13 1025.49 1025.78 1025.87 1025.87 1025.55 1025.46 1025.51 1025.23 1024.82 1024.47 1024.14 1023.89 1023.61 1023.39 1023.30 1023.28 1022.95 1022.54 1022.15 1021.80 1021.34 1020.80 1020.64 1020.19 1019.38 1018.81 1018.73 1018.41 1017.80 1017.42 1017.30 1017.18 1016.81 1016.57 1016.29 1016.27 1016.30 1016.41 1016.13 1015.93 1015.52 1014.90
1025.77 1026.09 1026.40 1026.56 1026.49 1026.42 1026.60 1026.50 1026.05 1025.50 1025.01 1024.71 1024.60 1024.55 1024.38 1024.19 1023.97 1023.86 1023.62 1023.20 1022.86 1022.43 1022.02 1021.64 1021.41 1021.23 1020.72 1020.21 1019.70 1019.33 1019.07 1018.80 1018.50 1018.09 1018.19 1018.37 1018.34 1018.13 1018.06 1017.82 1017.49 1016.97 1016.41
Wind_Speed
14 14 12 9 12 12 14 12 13 12 10 7 7 5 7 8 7 7 6 5 6 8 8 7 9 8 7 9 9 7 6 5 5 4 2 1 4 5 6 6 6 8 7
11 12 12 14 13 12 12 13 12 13 11 9 6 4 6 3 6 5 9 8 9 7 7 7 9 11 9 10 9 12 4 6 5 5 1 3 1 4 6 4 6 9 7
12 13 14 13 12 13 12 13 12 12 12 11 6 6 5 5 5 10 11 10 12 9 7 7 6 9 11 11 11 11 10 6 3 8 4 2 6 3 2 8 7 8 7
14 11 11 13 14 10 13 13 12 12 10 10 8 8 5 7 6 9 9 12 13 13 10 8 6 6 6 10 12 11 10 11 9 7 8 4 3 4 2 2 7 7 9
13 13 12 11 12 12 10 11 9 10 10 10 8 6 6 6 8 8 13 13 11 10 10 9 9 7 6 8 10 9 11 11 8 8 9 2 4 1 4 4 5 6 7
14 13 12 12 12 11 9 9 9 9 9 8 9 9 9 10 10 10 10 9 10 11 10 10 9 10 10 8 8 12 12 12 12 12 13 13 6 5 3 2 2 5 7
14 15 14 13 11 11 9 11 10 11 11 10 10 9 10 10 11 12 10 15 11 10 12 13 12 9 11 12 10 12 12 11 13 14 11 11 10 5 4 4 3 3 3
11 13 10 9 9 8 10 10 12 11 13 12 11 9 9 7 8 10 11 10 11 12 15 14 15 15 13 12 12 11 12 12 11 15 13 9 10 9 6 7 5 2 4
6 12 10 9 9 13 15 13 11 13 13 12 11 12 11 12 11 14 12 10 13 13 15 16 17 17 18 16 13 11 14 13 13 12 14 12 10 10 9 8 7 7 5
6 11 11 10 9 9 6 9 10 12 12 14 13 12 13 13 12 13 15 14 14 15 16 17 17 17 16 17 16 13 14 16 12 12 14 13 10 11 10 12 9 9 8
9 8 8 8 6 6 10 12 13 13 14 14 14 14 14 14 12 11 12 13 14 15 16 17 18 18 18 17 16 17 16 18 16 16 16 16 14 11 11 11 11 10 8
9 9 8 7 8 10 12 12 12 12 10 11 13 15 14 13 13 13 14 14 14 14 15 16 17 18 18 16 18 19 16 18 18 17 16 17 12 16 14 11 14 13 11
8 7 7 10 12 11 9 11 12 13 12 12 13 14 14 14 14 14 14 14 14 14 14 15 15 15 16 15 19 17 18 20 19 17 16 18 17 16 13 13 12 10 8
9 7 8 8 9 10 11 11 11 12 13 13 14 15 15 14 13 13 14 14 14 14 14 14 14 14 13 15 16 16 17 18 16 15 18 17 18 17 16 13 13 11 9
9 9 9 9 10 10 11 12 12 12 13 13 13 14 13 14 12 13 14 14 14 13 14 13 14 13 12 12 15 13 13 15 12 7 9 11 15 19 17 11 13 13 10
9 8 8 9 10 11 11 12 13 14 12 11 12 14 15 14 16 15 14 14 16 16 15 14 14 16 12 27 22 14 13 15 12 11 11 11 13 8 14 15 14 6 15
6 7 9 9 10 11 11 14 13 10 10 12 13 15 16 17 16 15 14 15 15 15 16 15 16 18 20 26 25 31 17 16 16 14 10 11 10 12 8 18 19 20 20
5 7 7 7 8 8 9 6 10 12 13 13 13 15 16 15 15 15 14 14 13 15 15 18 18 19 20 28 23 33 24 20 22 15 17 13 13 16 13 8 14 14 14
3 4 3 1 4 7 7 6 8 9 13 13 13 13 14 14 14 15 15 14 13 14 15 15 20 20 22 35 32 22 20 20 23 17 19 15 16 24 23 14 14 13 13
2 3 3 4 8 7 7 6 8 8 11 12 11 11 12 12 13 14 14 12 10 12 11 16 19 28 23 39 37 28 19 17 14 15 20 32 20 29 27 13 11 15 10
6 5 6 8 8 8 7 7 9 11 6 7 10 12 11 12 12 11 12 12 12 12 14 15 17 21 25 25 35 34 15 13 15 14 14 15 27 27 29 18 15 12 7
6 7 8 9 8 8 7 8 10 8 8 5 8 11 11 10 10 12 11 13 13 14 15 15 15 15 17 30 31 33 31 24 14 14 12 14 29 30 29 19 22 20 9
6 8 8 9 8 8 8 10 8 7 7 7 6 5 8 10 10 11 12 11 13 13 13 13 13 13 13 13 28 29 28 26 14 12 19 25 25 26 20 28 25 16 9
6 8 8 8 8 8 10 10 9 5 6 7 8 7 6 9 9 9 10 11 12 11 12 12 12 11 12 13 13 12 12 16 14 14 13 15 16 18 14 13 13 9 8
8 8 7 8 9 10 11 10 9 6 7 8 9 9 8 8 7 9 11 10 11 15 10 10 11 12 12 14 21 18 11 10 13 9 10 11 11 11 10 9 10 9 9
8 8 7 7 7 9 8 9 8 7 6 8 8 7 6 6 6 5 7 20 21 24 24 25 19 11 23 24 24 25 25 23 19 10 11 11 10 10 10 9 9 10 11
Wind_Direction
122 112 106 98 84 64 63 55 51 43 39 22 10 7 2 329 338 336 18 21 355 324 324 278 256 243 225 236 232 215 202 230 198 115 89 170 210 198 193 196 189 190 200
100 83 76 80 69 69 62 55 51 48 40 34 23 7 332 330 318 346 340 349 355 347 335 335 317 259 239 224 237 224 201 220 182 209 102 191 234 226 198 200 204 195 187
92 85 81 66 62 63 60 58 48 43 37 27 14 6 344 340 343 343 332 338 336 334 331 318 310 311 292 247 232 239 220 228 139 272 183 184 217 129 179 205 208 197 191
97 74 67 69 67 45 51 51 47 36 29 21 20 24 10 331 329 319 315 320 326 322 319 310 300 296 300 288 235 225 213 206 207 240 268 290 169 159 178 237 222 209 201
90 85 61 55 58 52 50 49 42 38 20 15 10 9 348 317 311 312 313 312 310 308 312 310 305 286 280 282 272 233 198 200 202 196 218 258 272 215 134 189 198 212 219
74 65 68 53 46 38 30 43 27 29 16 15 3 354 333 324 320 315 310 310 314 311 309 309 310 307 299 289 292 255 219 200 208 209 208 199 194 201 148 135 180 204 222
66 56 42 39 31 29 23 19 19 16 4 4 358 344 326 315 307 311 309 309 307 306 307 310 305 299 297 297 295 294 236 215 206 210 211 224 215 183 170 154 183 175 218
48 67 54 37 17 17 25 16 17 2 5 353 344 333 317 307 304 301 300 295 295 295 296 294 292 290 283 280 277 270 271 224 220 221 218 207 212 197 187 199 158 181 205
89 79 57 28 15 12 16 8 354 5 0 347 338 332 326 322 311 306 299 295 292 292 290 291 289 282 280 278 274 267 263 245 221 219 215 207 203 195 193 196 202 190 180
79 62 59 34 17 357 344 1 4 4 350 346 341 335 330 327 319 313 308 301 300 296 294 291 284 281 272 269 264 264 263 259 224 215 209 213 198 200 196 193 206 210 199
84 72 58 40 11 339 359 11 7 360 355 349 345 341 338 334 327 320 315 312 308 305 301 296 288 277 270 263 247 249 253 261 227 215 214 208 204 201 198 202 190 208 187
64 51 42 21 8 8 5 7 1 1 352 345 347 351 348 344 340 333 328 324 318 316 310 306 296 288 278 265 253 245 241 238 230 218 205 207 199 207 204 200 201 203 194
80 59 33 26 12 7 2 9 5 7 358 354 353 355 353 351 348 342 337 335 332 327 322 319 311 310 298 299 267 236 234 231 236 216 214 209 197 207 206 206 200 196 186
58 55 40 30 18 11 15 12 8 11 360 359 359 356 354 345 345 345 347 347 346 344 335 338 334 332 321 312 300 237 235 235 233 207 218 208 203 204 206 196 195 192 187
58 45 37 29 23 16 17 18 14 10 4 4 3 357 347 350 348 355 356 351 354 354 351 349 352 345 353 333 296 261 234 231 241 255 236 216 206 199 199 191 191 182 180
47 39 39 34 25 16 13 14 13 10 1 3 7 3 360 357 0 1 3 0 0 360 1 1 359 6 9 0 3 78 60 56 64 62 45 29 32 90 111 84 64 203 179
52 41 36 29 23 12 14 25 16 1 5 12 10 9 5 3 2 359 4 3 4 6 4 4 14 19 19 17 28 70 60 56 58 52 53 55 39 44 64 90 78 60 50
79 58 43 29 24 19 28 19 30 25 23 15 13 13 10 359 359 5 1 4 5 11 8 11 17 23 26 23 36 59 60 48 49 38 44 54 53 41 37 45 73 61 52
93 72 45 357 11 21 9 8 18 30 31 22 20 15 15 3 1 4 5 2 7 8 15 15 16 21 29 30 33 48 64 60 51 42 45 46 57 56 49 42 67 64 47
77 57 14 6 30 12 2 360 21 37 35 23 20 22 21 13 10 6 4 6 12 17 14 20 22 23 26 28 31 36 42 51 60 53 49 47 53 63 56 56 62 47 37
110 77 57 51 35 21 10 21 35 35 24 20 24 28 22 23 15 13 15 8 14 20 25 27 27 27 27 30 37 40 41 42 46 40 43 46 44 57 62 54 49 72 2
109 89 64 48 34 26 26 32 38 22 15 23 30 28 22 22 21 22 19 22 22 24 27 27 30 28 26 31 37 42 45 43 48 46 38 43 44 48 50 46 45 49 33
88 79 69 55 37 29 33 36 19 16 4 22 30 37 22 23 24 27 26 28 27 29 26 28 28 28 24 26 29 35 40 41 48 46 49 48 45 43 39 37 34 30 33
90 85 75 65 50 33 37 32 13 3 21 34 35 35 43 32 28 31 31 27 29 29 29 26 29 29 31 29 24 26 27 29 35 32 35 35 40 45 39 36 32 28 27
97 91 85 65 46 32 26 11 7 5 44 44 38 34 33 36 25 32 39 37 31 36 34 33 23 26 31 35 38 37 34 35 32 35 40 38 34 36 29 29 27 23 25
107 98 82 71 51 39 21 360 356 20 31 46 38 30 30 27 30 26 41 39 45 44 42 45 49 27 37 34 39 41 45 43 42 43 40 36 32 34 27 25 19 19 21